Regional Weather Roundup
Issued by NWS

Home | Current Version | Previous Version | Text Only | Print | Product List | Glossary On
Versions: 1 2 3 4 5 6 7 8 9 10 11 12 13 14 15 16 17 18 19 20 21 22 23 24 25 26 27 28 29 30 31 32 33 34 35 36 37 38 39 40 41 42 43 44 45 46 47 48 49 50
000
ASUS43 KMKX 261600
RWRWI

WISCONSIN REGIONAL WEATHER ROUNDUP
NATIONAL WEATHER SERVICE MILWAUKEE/SULLIVAN WI
1100 AM CDT THU APR 26 2018

NOTE: "FAIR" INDICATES FEW OR NO CLOUDS BELOW 12,000 FEET WITH NO
SIGNIFICANT WEATHER AND/OR OBSTRUCTIONS TO VISIBILITY.

WIZ001-002-006>008-014>016-023>028-261700-
NORTHWEST WISCONSIN

CITY           SKY/WX    TMP DP  RH WIND       PRES   REMARKS
SUPERIOR ARPT  PTSUNNY   52  34  50 NW14      29.82R
ASHLAND        FAIR      55  32  41 W12       29.79S
HAYWARD        FAIR      59  32  36 W8        29.80F
SIREN          FAIR      55  32  41 W9        29.83R
CUMBERLAND     FAIR      55  32  41 SW13      29.82F
RICE LAKE      FAIR      58  31  37 SW10      29.84S
CHETEK         FAIR      58  33  39 W7G16     29.84S
LADYSMITH      FAIR      58  34  40 W10       29.84F
EAU CLAIRE     NOT AVBL
MENOMONIE      FAIR      61  32  33 SW8       29.85F
NEW RICHMOND   FAIR      59  30  32 SW14G22   29.83F
OSCEOLA        FAIR      58  33  38 W10       29.86S
$$

WIZ003>005-009-010-017-018-261700-
NORTH CENTRAL WISCONSIN

CITY           SKY/WX    TMP DP  RH WIND       PRES   REMARKS
MANITOWISH WTR FAIR      52  32  46 SW10      29.80F
ARBOR VITAE    FAIR      55  33  43 SW10      29.81F
WOODRUFF       FAIR      55  33  43 SW10      29.81F
RHINELANDER    FAIR      55  32  41 SW9       29.83F
EAGLE RIVER    FAIR      50  29  43 W13       29.82S
LAND O LAKES   FAIR      53  28  38 SW7       29.82S
PHILLIPS       FAIR      53  33  45 SW10G16   29.80F
TOMAHAWK       FAIR      53  31  42 SW5       29.84F
MEDFORD        FAIR      51  35  52 SW9       29.86F
MERRILL        FAIR      55  33  42 W12       29.86F
$$

WIZ029-030-035-036-043>047-261700-
CENTRAL WISCONSIN

CITY           SKY/WX    TMP DP  RH WIND       PRES   REMARKS
WAUSAU         FAIR      56  31  38 W9        29.85F
MOSINEE        MOSUNNY   55  34  44 W13       29.88F
MARSHFIELD     FAIR      56  34  43 SW12      29.86F
STEVENS POINT  FAIR      54  31  42 W9G17     29.89S
WAUPACA        FAIR      60  28  29 W10       29.89F
WAUTOMA        FAIR      59  31  34 SW9       29.89F
WISC RAPIDS    FAIR      60  31  33 SW12G18   29.89F
CAMP DOUGLAS   NOT AVBL
$$

WIZ011>013-019>022-031-037>040-048>050-261700-
NORTHEAST WISCONSIN

CITY           SKY/WX    TMP DP  RH WIND       PRES   REMARKS
ANTIGO         FAIR      52  33  47 W16       29.86S
SHAWANO        FAIR      57  32  38 SW10      29.87F
OCONTO         FAIR      57  32  38 W8        29.87F
STURGEON BAY   FAIR      55  31  39 SW14      29.88F
GREEN BAY      FAIR      54  37  52 SW10      29.89F
MANITOWOC      FAIR      57  32  38 SW14      29.90F
APPLETON       MOSUNNY   54  30  40 SW9       29.89S
CLINTONVILLE   FAIR      56  32  40 SW6       29.88F
OSHKOSH        FAIR      56  36  47 SW9       29.90S
$$

WIZ032>034-041-042-053>061-261700-
SOUTHWEST WISCONSIN

CITY           SKY/WX    TMP DP  RH WIND       PRES   REMARKS
LA CROSSE      FAIR      60  36  40 S12       29.89F
SPARTA         FAIR      58  35  41 W9        29.91S
VIROQUA        FAIR      58  36  43 W10       29.91F
BOSCOBEL       FAIR      60  35  39 SW9       29.93F
PRAIRIE DU CHI FAIR      56  33  41 S3        29.93S
PLATTEVILLE    FAIR      56  37  49 SW7       29.95R
$$

WIZ056-057-062-063-064-067-068-261700-
SOUTH CENTRAL WISCONSIN

CITY           SKY/WX    TMP DP  RH WIND       PRES   REMARKS
REEDSBURG      FAIR      56  33  42 SW10      29.92S
BARABOO/DELLS  FAIR      54  32  43 SW6       29.92S
LONE ROCK      NOT AVBL
MINERAL POINT  FAIR      55  36  47 W6        29.93S
MADISON        PTSUNNY   54  34  46 VRB5      29.92S
MIDDLETON      FAIR      56  33  41 SW6       29.93S
WATERTOWN      FAIR      54  35  49 SW7       29.93R
MONROE         FAIR      54  32  43 SW12      29.93F
JANESVILLE     MOSUNNY   59  32  36 W9        29.94S
$$

WIZ051-052-058>065-066-070>072-261700-
SOUTHEAST WISCONSIN

CITY           SKY/WX    TMP DP  RH WIND       PRES   REMARKS
MILWAUKEE      PTSUNNY   58  32  37 SW7       29.93F
WAUKESHA       SUNNY     55  30  38 W6        29.93F
MILWAUKEE/TIMM SUNNY     57  28  33 SW9       29.93F
RACINE         FAIR      58  32  37 VRB7      29.95F
BURLINGTON     FAIR      58  30  35 W6        29.94S
KENOSHA        FAIR      58  31  35 SW9       29.94F
FOND DU LAC    FAIR      54  35  48 SW9       29.91S
SHEBOYGAN      FAIR      59  35  40 SW12      29.90F
WEST BEND      FAIR      55  32  41 SW10      29.91F
JUNEAU         FAIR      52  36  54 SW7       29.94R
$$

LSZ147-162-261700-
LAKE SUPERIOR

STATION/POSITION TIME  TEMP    WIND        PRES    WAVE
                       AIR SEA DIR/SP/G            HT/PER
                 (UTC) (F)     (DEG/KT/KT) (MB)    (FT/S)
DEVILS ISLAND    1500   41     240/ 12/ 15 1009.1F
SAXON HARBOR     1530   58     240/  4/ 14 1008.5R
$$

LMZ867-665-643>646-261700-
LAKE MICHIGAN

STATION/POSITION TIME  TEMP    WIND        PRES    WAVE
                       AIR SEA DIR/SP/G            HT/PER
                 (UTC) (F)     (DEG/KT/KT) (MB)    (FT/S)
NORTHPORT PIER   1540   48                 1011.5S
KEWAUNEE LAKESHO 1530   41     160/  9/ 11 1011.7F
SHEBOYGAN LAKESH 1500   44     180/ 11/ 12 1013.1F
PORT WASHINGTON  1540   45     170/  5/  7 1014.2F
MILWAUKEE LAKESH 1530   41     120/  6/  7   N/A
KENOSHA   LAKESH 1500   45                 1014.2
$$

TC  - TEMPERATURE IN CELSIUS
VSB - VISIBILITY IN STATUTE MILES
WCI - WIND CHILL INDEX
HX  - HEAT INDEX





USA.gov is the U.S. government's official web portal to all federal, state and local government web resources and services.